Voltar ao catálogo

CZ-6A DEB

AtivoSSO
NORAD 54550·DEBRIS·🇨🇳 China

Lançado Nov 11, 2022 de Taiyuan Satellite Launch Center

Loading…

Próximas Passagens (próximas 24 horas)

TLE

AtualizadoSource: Space-Track

Época: Sep 14, 2026, 09:31 UTC

1 54550U 22151LA  26257.39680179  .00000589  00000-0  20646-3 0  9998
2 54550  98.6577 296.2040 0065790  47.7926 312.8819 14.37532016200846

Acompanhe CZ-6A DEB em tempo real com AllMySat

Download on the App Store